KLM615 EHAM-KPDX

Flight info

Callsign KLM615
Flight time N/A
Altitude 34000
Route BERGI L602 SUPUR P1 GODOS DCT ROKAN DCT GIGUL DCT ODMOS DCT NOBDO DCT UPNAL DCT DOKEN DCT GOMOT DCT ETSOM DCT ERAKA/M085F340 DCT 62N020W 65N030W 67N040W 67N050W/M085F360 DCT DARUB/N0489F360 DCT 6630N07000W 6530N08000W 6330N09000W 6030N10000W DCT RIDOK DCT YEGGA/N0482F380 DCT NOVAR DCT ONSET DCT EPH DCT JORAD HHOOD6
Aircraft B78X/H-SDE1E2E3FGHIJ2J3J4J5M1RWXY/LB1D1

Departure

Time N/A
Airport Amsterdam Airport Schiphol (EHAM)

Arrival

Time 2026-05-06 21:00
Airport Portland International Airport (KPDX)
Time Latitude Longitude Altitude Speed Heading
2026-05-06 12:22 56.04966 -0.90223 34978 ft 393 kts 292°
2026-05-06 12:22 56.06096 -0.94692 35128 ft 396 kts 291°
2026-05-06 12:23 56.07212 -0.99221 35276 ft 400 kts 292°
2026-05-06 12:23 56.08396 -1.03753 35423 ft 404 kts 293°
2026-05-06 12:23 56.09605 -1.08306 35565 ft 407 kts 293°
2026-05-06 12:23 56.10801 -1.12927 35712 ft 410 kts 292°
2026-05-06 12:24 56.11992 -1.17601 35848 ft 414 kts 292°
2026-05-06 12:24 56.13186 -1.22249 35987 ft 418 kts 293°
2026-05-06 12:24 56.14427 -1.27054 36097 ft 422 kts 292°
2026-05-06 12:24 56.15648 -1.31808 36108 ft 429 kts 292°
2026-05-06 12:25 56.18169 -1.41692 36110 ft 442 kts 292°
2026-05-06 12:25 56.20763 -1.51881 36105 ft 455 kts 292°
2026-05-06 12:26 56.23403 -1.62310 36100 ft 458 kts 292°
2026-05-06 12:26 56.26031 -1.72738 36105 ft 458 kts 292°
2026-05-06 12:27 56.28649 -1.83178 36102 ft 458 kts 292°
2026-05-06 12:27 56.31261 -1.93645 36096 ft 458 kts 292°
2026-05-06 12:28 56.33861 -2.04110 36100 ft 458 kts 292°
2026-05-06 12:28 56.36452 -2.14588 36095 ft 457 kts 292°
2026-05-06 12:29 56.39016 -2.25010 36096 ft 457 kts 292°
2026-05-06 12:29 56.41583 -2.35491 36086 ft 456 kts 292°
2026-05-06 12:30 56.44141 -2.45988 36088 ft 456 kts 292°
2026-05-06 12:30 56.46690 -2.56493 36086 ft 456 kts 292°
2026-05-06 12:31 56.49225 -2.66998 36087 ft 455 kts 292°
2026-05-06 12:31 56.51749 -2.77502 36083 ft 455 kts 292°
2026-05-06 12:32 56.54260 -2.88007 36081 ft 454 kts 292°
2026-05-06 12:32 56.56760 -2.98516 36084 ft 453 kts 292°
2026-05-06 12:33 56.59249 -3.09030 36083 ft 453 kts 292°
2026-05-06 12:33 56.61723 -3.19529 36077 ft 452 kts 292°
2026-05-06 12:34 56.64186 -3.30036 36064 ft 452 kts 292°
2026-05-06 12:34 56.66642 -3.40562 36066 ft 452 kts 292°
2026-05-06 12:35 56.69084 -3.51082 36054 ft 452 kts 292°
2026-05-06 12:35 56.71519 -3.61622 36056 ft 451 kts 291°
2026-05-06 12:36 56.73945 -3.72177 36054 ft 451 kts 291°
2026-05-06 12:36 56.76358 -3.82729 36052 ft 451 kts 291°
2026-05-06 12:37 56.78748 -3.93230 36053 ft 451 kts 291°
2026-05-06 12:37 56.81146 -4.03821 36051 ft 451 kts 291°
2026-05-06 12:38 56.83533 -4.14412 36049 ft 451 kts 291°
2026-05-06 12:38 56.85913 -4.25026 36048 ft 452 kts 291°
2026-05-06 12:39 56.88285 -4.35663 36042 ft 452 kts 291°
2026-05-06 12:39 56.90650 -4.46318 36046 ft 452 kts 291°
2026-05-06 12:40 56.93006 -4.56991 36043 ft 452 kts 291°
2026-05-06 12:40 56.95349 -4.67657 36047 ft 452 kts 291°
2026-05-06 12:41 56.97685 -4.78346 36046 ft 452 kts 291°
2026-05-06 12:41 57.00012 -4.89049 36046 ft 452 kts 291°
2026-05-06 12:42 57.02329 -4.99761 36046 ft 451 kts 291°
2026-05-06 12:42 57.04634 -5.10478 36052 ft 451 kts 291°
2026-05-06 12:43 57.06936 -5.21231 36045 ft 451 kts 291°
2026-05-06 12:43 57.09223 -5.31971 36048 ft 451 kts 291°
2026-05-06 12:44 57.11484 -5.42648 36044 ft 451 kts 291°
2026-05-06 12:44 57.13751 -5.53408 36054 ft 451 kts 291°
2026-05-06 12:45 57.16011 -5.64188 36047 ft 451 kts 291°
2026-05-06 12:46 57.19379 -5.80365 36055 ft 451 kts 291°
2026-05-06 12:46 57.21611 -5.91157 36056 ft 450 kts 290°
2026-05-06 12:47 57.23458 -6.00133 36054 ft 450 kts 290°
2026-05-06 12:47 57.25674 -6.10957 36052 ft 450 kts 290°
2026-05-06 12:48 57.27876 -6.21767 36055 ft 449 kts 290°
2026-05-06 12:48 57.30065 -6.32572 36052 ft 449 kts 290°
2026-05-06 12:49 57.32249 -6.43415 36059 ft 449 kts 290°
2026-05-06 12:49 57.34421 -6.54252 36054 ft 449 kts 290°
2026-05-06 12:50 57.36581 -6.65092 36057 ft 449 kts 290°
2026-05-06 12:50 57.38732 -6.75943 36052 ft 448 kts 290°
2026-05-06 12:51 57.40869 -6.86785 36044 ft 447 kts 290°
2026-05-06 12:51 57.42980 -6.97556 36039 ft 447 kts 290°
2026-05-06 12:52 57.45091 -7.08385 36031 ft 446 kts 290°
2026-05-06 12:52 57.47193 -7.19229 36029 ft 445 kts 290°
2026-05-06 12:53 57.49280 -7.30054 36025 ft 445 kts 290°
2026-05-06 12:53 57.51359 -7.40897 36027 ft 444 kts 290°
2026-05-06 12:54 57.53423 -7.51725 36019 ft 444 kts 290°
2026-05-06 12:54 57.55473 -7.62543 36024 ft 443 kts 290°
2026-05-06 12:55 57.57510 -7.73347 36031 ft 442 kts 290°
2026-05-06 12:55 57.59522 -7.84081 36033 ft 441 kts 290°
2026-05-06 12:56 57.61533 -7.94876 36039 ft 440 kts 290°
2026-05-06 12:56 57.63535 -8.05678 36042 ft 440 kts 290°
2026-05-06 12:57 57.65522 -8.16461 36038 ft 439 kts 289°
2026-05-06 12:57 57.67499 -8.27250 36034 ft 439 kts 289°
2026-05-06 12:58 57.69461 -8.38024 36036 ft 438 kts 289°
2026-05-06 12:58 57.71411 -8.48790 36031 ft 437 kts 289°
2026-05-06 12:59 57.73353 -8.59572 36031 ft 436 kts 289°
2026-05-06 12:59 57.75278 -8.70327 36030 ft 436 kts 289°
2026-05-06 13:00 57.77191 -8.81072 36024 ft 435 kts 289°
2026-05-06 13:00 57.79093 -8.91821 36024 ft 434 kts 289°
2026-05-06 13:01 57.80983 -9.02564 36021 ft 434 kts 289°
2026-05-06 13:01 57.82866 -9.13330 36013 ft 434 kts 289°
2026-05-06 13:02 57.84723 -9.24012 36011 ft 433 kts 288°
2026-05-06 13:02 57.86582 -9.34766 36002 ft 433 kts 288°
2026-05-06 13:03 57.88429 -9.45514 36000 ft 432 kts 288°
2026-05-06 13:03 57.90536 -9.56061 35996 ft 432 kts 292°
2026-05-06 13:04 57.92792 -9.66536 35999 ft 432 kts 292°
2026-05-06 13:04 57.95068 -9.77005 35992 ft 432 kts 292°
2026-05-06 13:05 57.97318 -9.87472 35988 ft 431 kts 292°
2026-05-06 13:05 57.99719 -9.97794 35993 ft 430 kts 299°
2026-05-06 13:06 58.03349 -10.06774 35984 ft 433 kts 310°
2026-05-06 13:06 58.07402 -10.15080 35975 ft 433 kts 310°
2026-05-06 13:07 58.11492 -10.23427 35972 ft 433 kts 310°
2026-05-06 13:07 58.15569 -10.31812 35969 ft 432 kts 310°
2026-05-06 13:08 58.19638 -10.40196 35966 ft 432 kts 310°
2026-05-06 13:08 58.23703 -10.48608 35965 ft 432 kts 309°
2026-05-06 13:09 58.27759 -10.57030 35959 ft 432 kts 309°
2026-05-06 13:09 58.31807 -10.65466 35953 ft 431 kts 309°
2026-05-06 13:10 58.35844 -10.73910 35948 ft 431 kts 309°
2026-05-06 13:10 58.39878 -10.82379 35945 ft 432 kts 309°
2026-05-06 13:11 58.43913 -10.90882 35940 ft 432 kts 309°
2026-05-06 13:11 58.47917 -10.99350 35938 ft 432 kts 309°
2026-05-06 13:12 58.51943 -11.07896 35933 ft 432 kts 309°
2026-05-06 13:12 58.55962 -11.16460 35929 ft 432 kts 308°
2026-05-06 13:13 58.59971 -11.25033 35924 ft 432 kts 308°
2026-05-06 13:13 58.63982 -11.33641 35923 ft 433 kts 308°
2026-05-06 13:14 58.67986 -11.42268 35920 ft 433 kts 308°
2026-05-06 13:14 58.71986 -11.50920 35920 ft 433 kts 308°
2026-05-06 13:15 58.75982 -11.59593 35921 ft 433 kts 308°
2026-05-06 13:15 58.79970 -11.68284 35915 ft 433 kts 308°
2026-05-06 13:16 58.83959 -11.77008 35911 ft 434 kts 308°
2026-05-06 13:16 58.87949 -11.85768 35897 ft 434 kts 308°
2026-05-06 13:17 58.91931 -11.94543 35895 ft 435 kts 308°
2026-05-06 13:17 58.95916 -12.03360 35897 ft 435 kts 307°
2026-05-06 13:18 58.99879 -12.12159 35901 ft 436 kts 307°
2026-05-06 13:18 59.03864 -12.21042 35902 ft 437 kts 307°
2026-05-06 13:19 59.07849 -12.29960 35897 ft 437 kts 307°
2026-05-06 13:19 59.11836 -12.38917 35895 ft 438 kts 307°
2026-05-06 13:20 59.15822 -12.47905 35887 ft 439 kts 307°
2026-05-06 13:20 59.19808 -12.56930 35887 ft 439 kts 307°
2026-05-06 13:21 59.23796 -12.65994 35881 ft 440 kts 307°
2026-05-06 13:21 59.27779 -12.75083 35883 ft 441 kts 307°
2026-05-06 13:22 59.31771 -12.84228 35878 ft 442 kts 307°
2026-05-06 13:22 59.35762 -12.93405 35880 ft 443 kts 307°
2026-05-06 13:23 59.39753 -13.02621 35874 ft 444 kts 307°
2026-05-06 13:23 59.43747 -13.11880 35873 ft 445 kts 307°
2026-05-06 13:24 59.47747 -13.21190 35867 ft 446 kts 307°
2026-05-06 13:24 59.51744 -13.30531 35868 ft 446 kts 307°
2026-05-06 13:25 59.55714 -13.39846 35869 ft 447 kts 307°
2026-05-06 13:25 59.59713 -13.49266 35870 ft 448 kts 307°
2026-05-06 13:26 59.63710 -13.58722 35862 ft 449 kts 307°
2026-05-06 13:26 59.67710 -13.68223 35866 ft 450 kts 307°
2026-05-06 13:27 59.71709 -13.77760 35866 ft 450 kts 307°
2026-05-06 13:27 59.75708 -13.87337 35867 ft 451 kts 307°
2026-05-06 13:28 59.79707 -13.96953 35866 ft 452 kts 307°
2026-05-06 13:28 59.83706 -14.06610 35867 ft 453 kts 307°
2026-05-06 13:29 59.87704 -14.16305 35862 ft 453 kts 306°
2026-05-06 13:29 59.91697 -14.26028 35868 ft 454 kts 306°
2026-05-06 13:30 59.95687 -14.35784 35870 ft 454 kts 306°
2026-05-06 13:30 59.99652 -14.45522 35867 ft 455 kts 306°
2026-05-06 13:31 60.03634 -14.55343 35865 ft 455 kts 306°
2026-05-06 13:31 60.07618 -14.65208 35868 ft 455 kts 306°
2026-05-06 13:32 60.11589 -14.75086 35870 ft 456 kts 306°
2026-05-06 13:32 60.15563 -14.85011 35863 ft 456 kts 306°
2026-05-06 13:33 60.19527 -14.94955 35865 ft 457 kts 306°
2026-05-06 13:33 60.23493 -15.04947 35863 ft 457 kts 306°
2026-05-06 13:34 60.27459 -15.14983 35860 ft 458 kts 306°
2026-05-06 13:34 60.31420 -15.25047 35864 ft 458 kts 306°
2026-05-06 13:35 60.35372 -15.35136 35851 ft 458 kts 306°
2026-05-06 13:35 60.39317 -15.45249 35856 ft 458 kts 306°
2026-05-06 13:36 60.43257 -15.55393 35857 ft 458 kts 305°
2026-05-06 13:36 60.47190 -15.65562 35858 ft 459 kts 305°
2026-05-06 13:37 60.51092 -15.75698 35863 ft 459 kts 305°
2026-05-06 13:37 60.54375 -15.84262 35868 ft 459 kts 305°
2026-05-06 13:38 60.58291 -15.94514 35867 ft 459 kts 305°
2026-05-06 13:38 60.62836 -16.06470 35872 ft 459 kts 305°
2026-05-06 13:39 60.66734 -16.16779 35876 ft 459 kts 305°
2026-05-06 13:39 60.69999 -16.25441 35877 ft 459 kts 305°
2026-05-06 13:40 60.74515 -16.37489 35885 ft 459 kts 305°
2026-05-06 13:40 60.77760 -16.46180 35881 ft 460 kts 305°
2026-05-06 13:41 60.81642 -16.56619 35890 ft 460 kts 305°
2026-05-06 13:41 60.85481 -16.66994 35894 ft 460 kts 304°
2026-05-06 13:42 60.89337 -16.77459 35896 ft 460 kts 305°
2026-05-06 13:42 60.93187 -16.87955 35905 ft 461 kts 304°
2026-05-06 13:43 60.97038 -16.98503 35906 ft 462 kts 304°
2026-05-06 13:43 61.00886 -17.09087 35907 ft 461 kts 304°
2026-05-06 13:44 61.04717 -17.19682 35908 ft 462 kts 304°
2026-05-06 13:44 61.08555 -17.30330 35916 ft 461 kts 304°
2026-05-06 13:45 61.12374 -17.40990 35912 ft 462 kts 304°
2026-05-06 13:45 61.18099 -17.57046 35927 ft 463 kts 304°
2026-05-06 13:46 61.21911 -17.67805 35936 ft 463 kts 304°
2026-05-06 13:46 61.25714 -17.78585 35939 ft 463 kts 304°
2026-05-06 13:47 61.29500 -17.89373 35942 ft 462 kts 304°
2026-05-06 13:47 61.33290 -18.00215 35951 ft 463 kts 304°
2026-05-06 13:48 61.37043 -18.11008 35957 ft 463 kts 304°
2026-05-06 13:48 61.40814 -18.21899 35965 ft 463 kts 304°
2026-05-06 13:49 61.44580 -18.32833 35965 ft 464 kts 304°
2026-05-06 13:49 61.48350 -18.43825 35979 ft 465 kts 304°
2026-05-06 13:50 61.52119 -18.54868 35980 ft 466 kts 304°
2026-05-06 13:50 61.55880 -18.65941 35990 ft 465 kts 304°
2026-05-06 13:51 61.59621 -18.77012 35998 ft 466 kts 304°
2026-05-06 13:51 61.63363 -18.88137 36003 ft 466 kts 304°
2026-05-06 13:52 61.67095 -18.99281 36008 ft 466 kts 304°
2026-05-06 13:52 61.70822 -19.10474 36015 ft 467 kts 304°
2026-05-06 13:53 61.74546 -19.21703 36025 ft 467 kts 304°
2026-05-06 13:53 61.78266 -19.32980 36031 ft 467 kts 304°
2026-05-06 13:54 61.81976 -19.44283 36038 ft 469 kts 304°
2026-05-06 13:54 61.85659 -19.55555 36045 ft 468 kts 304°
2026-05-06 13:55 61.89374 -19.66983 36053 ft 469 kts 304°
2026-05-06 13:55 61.93043 -19.78326 36061 ft 469 kts 304°
2026-05-06 13:56 61.96722 -19.89758 36063 ft 468 kts 304°
2026-05-06 13:56 62.00429 -20.01170 36075 ft 469 kts 309°
2026-05-06 13:57 62.04477 -20.12082 36077 ft 470 kts 308°
2026-05-06 13:57 62.08509 -20.23046 36085 ft 470 kts 308°
2026-05-06 13:58 62.12540 -20.34034 36091 ft 470 kts 308°
2026-05-06 13:58 62.16559 -20.45062 36103 ft 470 kts 308°
2026-05-06 13:59 62.20576 -20.56127 36101 ft 470 kts 308°
2026-05-06 13:59 62.24572 -20.67192 36111 ft 471 kts 308°
2026-05-06 14:00 62.28573 -20.78323 36117 ft 470 kts 308°
2026-05-06 14:00 62.32561 -20.89475 36123 ft 470 kts 308°
2026-05-06 14:01 62.36515 -21.00583 36135 ft 471 kts 308°
2026-05-06 14:01 62.40490 -21.11805 36136 ft 470 kts 308°
2026-05-06 14:02 62.44448 -21.23037 36137 ft 470 kts 308°
2026-05-06 14:02 62.48396 -21.34294 36145 ft 470 kts 308°
2026-05-06 14:03 62.52340 -21.45593 36152 ft 471 kts 308°
2026-05-06 14:03 62.56276 -21.56931 36163 ft 471 kts 308°
2026-05-06 14:04 62.60208 -21.68311 36165 ft 471 kts 308°
2026-05-06 14:04 62.64134 -21.79728 36174 ft 473 kts 308°
2026-05-06 14:05 62.68058 -21.91202 36173 ft 472 kts 307°
2026-05-06 14:05 62.71974 -22.02705 36174 ft 473 kts 307°
2026-05-06 14:06 62.75893 -22.14277 36182 ft 475 kts 307°
2026-05-06 14:06 62.79812 -22.25916 36186 ft 475 kts 307°
2026-05-06 14:07 62.83696 -22.37496 36190 ft 476 kts 307°
2026-05-06 14:07 62.87598 -22.49199 36190 ft 476 kts 307°
2026-05-06 14:08 62.91499 -22.60957 36195 ft 476 kts 307°
2026-05-06 14:08 62.95385 -22.72731 36196 ft 476 kts 307°
2026-05-06 14:09 62.99264 -22.84547 36200 ft 476 kts 307°
2026-05-06 14:09 63.03131 -22.96384 36204 ft 476 kts 307°
2026-05-06 14:10 63.06990 -23.08260 36208 ft 476 kts 307°
2026-05-06 14:10 63.10838 -23.20163 36215 ft 476 kts 307°
2026-05-06 14:11 63.14678 -23.32106 36217 ft 477 kts 307°
2026-05-06 14:11 63.18511 -23.44088 36220 ft 477 kts 307°
2026-05-06 14:12 63.22334 -23.56105 36227 ft 477 kts 307°
2026-05-06 14:12 63.26150 -23.68160 36233 ft 477 kts 306°
2026-05-06 14:13 63.29955 -23.80248 36240 ft 478 kts 306°
2026-05-06 14:13 63.33754 -23.92379 36246 ft 478 kts 306°
2026-05-06 14:14 63.37542 -24.04542 36250 ft 478 kts 306°
2026-05-06 14:14 63.41321 -24.16739 36254 ft 477 kts 306°
2026-05-06 14:15 63.45056 -24.28866 36258 ft 477 kts 306°
2026-05-06 14:15 63.48807 -24.41101 36263 ft 477 kts 306°
2026-05-06 14:16 63.52547 -24.53372 36267 ft 477 kts 306°
2026-05-06 14:16 63.56274 -24.65660 36263 ft 477 kts 306°
2026-05-06 14:17 63.59987 -24.77979 36271 ft 476 kts 306°
2026-05-06 14:17 63.63690 -24.90323 36279 ft 476 kts 306°
2026-05-06 14:18 63.67389 -25.02723 36282 ft 477 kts 306°
2026-05-06 14:18 63.71074 -25.15150 36287 ft 477 kts 306°
2026-05-06 14:19 63.74754 -25.27625 36296 ft 477 kts 306°
2026-05-06 14:19 63.78425 -25.40140 36300 ft 477 kts 306°
2026-05-06 14:20 63.82086 -25.52685 36305 ft 477 kts 306°
2026-05-06 14:20 63.85733 -25.65260 36310 ft 478 kts 305°
2026-05-06 14:21 63.89371 -25.77868 36313 ft 478 kts 305°
2026-05-06 14:21 63.93001 -25.90526 36318 ft 478 kts 305°
2026-05-06 14:22 63.96624 -26.03225 36321 ft 479 kts 305°
2026-05-06 14:22 64.00238 -26.15968 36327 ft 478 kts 305°
2026-05-06 14:23 64.03837 -26.28728 36331 ft 479 kts 305°
2026-05-06 14:23 64.07404 -26.41451 36331 ft 479 kts 304°
2026-05-06 14:24 64.10985 -26.54288 36339 ft 479 kts 304°
2026-05-06 14:24 64.14557 -26.67173 36347 ft 479 kts 304°
2026-05-06 14:25 64.18120 -26.80099 36351 ft 479 kts 304°
2026-05-06 14:25 64.21668 -26.93044 36350 ft 479 kts 304°
2026-05-06 14:26 64.25206 -27.06029 36373 ft 479 kts 304°
2026-05-06 14:26 64.28735 -27.19056 36371 ft 479 kts 304°
2026-05-06 14:27 64.32250 -27.32109 36372 ft 479 kts 304°
2026-05-06 14:27 64.35753 -27.45192 36373 ft 479 kts 304°
2026-05-06 14:28 64.38652 -27.56077 36380 ft 479 kts 304°
2026-05-06 14:28 64.42132 -27.69220 36379 ft 479 kts 304°
2026-05-06 14:29 64.45600 -27.82384 36381 ft 479 kts 304°
2026-05-06 14:29 64.49052 -27.95578 36386 ft 479 kts 303°
2026-05-06 14:30 64.52495 -28.08809 36393 ft 479 kts 303°
2026-05-06 14:30 64.55925 -28.22073 36399 ft 478 kts 303°
2026-05-06 14:31 64.59341 -28.35356 36405 ft 478 kts 303°
2026-05-06 14:31 64.62741 -28.48661 36412 ft 478 kts 303°
2026-05-06 14:32 64.66133 -28.62015 36413 ft 478 kts 303°
2026-05-06 14:32 64.69490 -28.75312 36416 ft 478 kts 303°
2026-05-06 14:33 64.72856 -28.88720 36425 ft 478 kts 303°
2026-05-06 14:33 64.76205 -29.02154 36433 ft 478 kts 303°
2026-05-06 14:34 64.79547 -29.15631 36440 ft 478 kts 302°
2026-05-06 14:34 64.82877 -29.29147 36438 ft 478 kts 302°
2026-05-06 14:35 64.86195 -29.42697 36451 ft 479 kts 302°
2026-05-06 14:35 64.89503 -29.56288 36451 ft 479 kts 302°
2026-05-06 14:36 64.92800 -29.69918 36454 ft 479 kts 302°
2026-05-06 14:36 64.96086 -29.83590 36455 ft 479 kts 302°
2026-05-06 14:37 64.99358 -29.97290 36460 ft 479 kts 302°
2026-05-06 14:37 65.02739 -30.10826 36470 ft 479 kts 302°
2026-05-06 14:38 65.06095 -30.24480 36471 ft 479 kts 303°
2026-05-06 14:38 65.09485 -30.38083 36476 ft 480 kts 302°
2026-05-06 14:39 65.12837 -30.51779 36473 ft 479 kts 303°
2026-05-06 14:39 65.16187 -30.65460 36476 ft 479 kts 302°
2026-05-06 14:40 65.19517 -30.79195 36477 ft 479 kts 302°
2026-05-06 14:40 65.22837 -30.92949 36478 ft 478 kts 302°
2026-05-06 14:41 65.26141 -31.06735 36483 ft 479 kts 302°
2026-05-06 14:41 65.29433 -31.20553 36481 ft 479 kts 302°
2026-05-06 14:42 65.32710 -31.34401 36486 ft 478 kts 302°
2026-05-06 14:42 65.35969 -31.48256 36491 ft 477 kts 302°
2026-05-06 14:43 65.39195 -31.62062 36486 ft 477 kts 302°
2026-05-06 14:43 65.42428 -31.75982 36492 ft 477 kts 302°
2026-05-06 14:44 65.45642 -31.89913 36494 ft 477 kts 302°
2026-05-06 14:45 65.50440 -32.10876 36491 ft 476 kts 302°
2026-05-06 14:45 65.53621 -32.24889 36496 ft 476 kts 302°
2026-05-06 14:46 65.56787 -32.38927 36495 ft 476 kts 302°
2026-05-06 14:46 65.59936 -32.52978 36507 ft 475 kts 301°
2026-05-06 14:47 65.63073 -32.67071 36502 ft 475 kts 301°
2026-05-06 14:47 65.66193 -32.81181 36493 ft 475 kts 301°
2026-05-06 14:48 65.69302 -32.95328 36493 ft 475 kts 301°
2026-05-06 14:48 65.72393 -33.09493 36491 ft 475 kts 301°
2026-05-06 14:49 65.75475 -33.23708 36490 ft 475 kts 301°
2026-05-06 14:49 65.78519 -33.37844 36491 ft 475 kts 301°
2026-05-06 14:50 65.81568 -33.52096 36492 ft 474 kts 301°
2026-05-06 14:50 65.84602 -33.66375 36485 ft 474 kts 301°
2026-05-06 14:51 65.87618 -33.80667 36483 ft 473 kts 301°
2026-05-06 14:51 65.90619 -33.94981 36487 ft 472 kts 301°
2026-05-06 14:52 65.93602 -34.09309 36485 ft 472 kts 301°
2026-05-06 14:52 65.96573 -34.23676 36481 ft 472 kts 301°
2026-05-06 14:53 65.99527 -34.38054 36484 ft 472 kts 300°
2026-05-06 14:53 66.02467 -34.52470 36479 ft 472 kts 300°
2026-05-06 14:54 66.05395 -34.66923 36483 ft 472 kts 300°
2026-05-06 14:54 66.08309 -34.81405 36479 ft 471 kts 300°
2026-05-06 14:55 66.11204 -34.95900 36477 ft 471 kts 300°
2026-05-06 14:55 66.14086 -35.10421 36476 ft 471 kts 300°
2026-05-06 14:56 66.16950 -35.24964 36475 ft 471 kts 300°
2026-05-06 14:56 66.19802 -35.39543 36478 ft 470 kts 300°
2026-05-06 14:57 66.22641 -35.54157 36479 ft 471 kts 300°
2026-05-06 14:57 66.25468 -35.68817 36499 ft 471 kts 300°
2026-05-06 14:58 66.28283 -35.83509 36487 ft 471 kts 299°
2026-05-06 14:58 66.31081 -35.98230 36490 ft 471 kts 299°
2026-05-06 14:59 66.33868 -36.12995 36493 ft 471 kts 299°
2026-05-06 14:59 66.36622 -36.27690 36493 ft 471 kts 299°
2026-05-06 15:00 66.39376 -36.42494 36497 ft 471 kts 299°
2026-05-06 15:00 66.42115 -36.57327 36498 ft 471 kts 299°
2026-05-06 15:01 66.44839 -36.72187 36498 ft 470 kts 299°
2026-05-06 15:01 66.47550 -36.87079 36498 ft 471 kts 299°
2026-05-06 15:02 66.50245 -37.02003 36499 ft 471 kts 298°
2026-05-06 15:02 66.52928 -37.16963 36492 ft 470 kts 298°
2026-05-06 15:03 66.55594 -37.31943 36489 ft 470 kts 298°
2026-05-06 15:03 66.58243 -37.46944 36499 ft 469 kts 298°
2026-05-06 15:04 66.60875 -37.61956 36493 ft 469 kts 298°
2026-05-06 15:04 66.63491 -37.76995 36489 ft 469 kts 298°
2026-05-06 15:05 66.66074 -37.91957 36492 ft 468 kts 298°
2026-05-06 15:05 66.68658 -38.07038 36490 ft 468 kts 298°
2026-05-06 15:06 66.71227 -38.22147 36499 ft 468 kts 298°
2026-05-06 15:06 66.73778 -38.37269 36491 ft 467 kts 298°
2026-05-06 15:07 66.76316 -38.52428 36494 ft 468 kts 298°
2026-05-06 15:07 66.78836 -38.67602 36493 ft 467 kts 297°
2026-05-06 15:08 66.81343 -38.82810 36504 ft 467 kts 297°
2026-05-06 15:08 66.83831 -38.98027 36499 ft 466 kts 297°
2026-05-06 15:09 66.86300 -39.13248 36497 ft 466 kts 297°
2026-05-06 15:09 66.88753 -39.28487 36498 ft 465 kts 297°
2026-05-06 15:10 66.91186 -39.43733 36509 ft 464 kts 297°
2026-05-06 15:10 66.93601 -39.58979 36502 ft 464 kts 297°
2026-05-06 15:11 66.95998 -39.74234 36508 ft 463 kts 297°
2026-05-06 15:11 66.98376 -39.89493 36515 ft 462 kts 297°
2026-05-06 15:12 67.00138 -40.05405 36553 ft 474 kts 282°
2026-05-06 15:12 67.00692 -40.22170 36540 ft 476 kts 281°
2026-05-06 15:13 67.01180 -40.39133 36548 ft 475 kts 281°
2026-05-06 15:13 67.01662 -40.55854 36545 ft 474 kts 281°
2026-05-06 15:14 67.02119 -40.72657 36530 ft 473 kts 281°
2026-05-06 15:14 67.02563 -40.89439 36548 ft 472 kts 281°
2026-05-06 15:15 67.02985 -41.06209 36534 ft 471 kts 280°
2026-05-06 15:15 67.03391 -41.22956 36545 ft 471 kts 280°
2026-05-06 15:16 67.03778 -41.39682 36541 ft 471 kts 280°
2026-05-06 15:16 67.04148 -41.56413 36527 ft 470 kts 280°
2026-05-06 15:17 67.04499 -41.73115 36528 ft 469 kts 280°
2026-05-06 15:17 67.04833 -41.89808 36523 ft 469 kts 280°
2026-05-06 15:18 67.05097 -42.03683 36518 ft 469 kts 280°
2026-05-06 15:18 67.05399 -42.20388 36508 ft 469 kts 279°
2026-05-06 15:19 67.05682 -42.37076 36503 ft 469 kts 279°
2026-05-06 15:19 67.05949 -42.53782 36493 ft 469 kts 279°
2026-05-06 15:20 67.06198 -42.70493 36484 ft 469 kts 279°
2026-05-06 15:20 67.06430 -42.87209 36476 ft 469 kts 279°
2026-05-06 15:21 67.06644 -43.03930 36469 ft 469 kts 279°
2026-05-06 15:21 67.06841 -43.20662 36462 ft 470 kts 278°
2026-05-06 15:22 67.07020 -43.37408 36464 ft 470 kts 278°
2026-05-06 15:22 67.07182 -43.54174 36460 ft 470 kts 278°
2026-05-06 15:23 67.07327 -43.70956 36454 ft 470 kts 278°
2026-05-06 15:23 67.07453 -43.87621 36453 ft 471 kts 278°
2026-05-06 15:24 67.07562 -44.04417 36451 ft 471 kts 278°
2026-05-06 15:24 67.07654 -44.21217 36451 ft 471 kts 277°
2026-05-06 15:25 67.07728 -44.38023 36452 ft 471 kts 277°
2026-05-06 15:25 67.07784 -44.54845 36440 ft 471 kts 277°
2026-05-06 15:26 67.07823 -44.71668 36441 ft 472 kts 277°
2026-05-06 15:26 67.07844 -44.88510 36426 ft 472 kts 277°
2026-05-06 15:27 67.07847 -45.05348 36426 ft 472 kts 276°
2026-05-06 15:27 67.07833 -45.22195 36418 ft 472 kts 276°
2026-05-06 15:28 67.07801 -45.39048 36404 ft 473 kts 276°
2026-05-06 15:28 67.07750 -45.55919 36400 ft 473 kts 276°
2026-05-06 15:29 67.07682 -45.72787 36383 ft 473 kts 276°
2026-05-06 15:29 67.07597 -45.89660 36378 ft 473 kts 275°
2026-05-06 15:30 67.07493 -46.06525 36368 ft 473 kts 275°
2026-05-06 15:30 67.07371 -46.23415 36356 ft 473 kts 275°
2026-05-06 15:31 67.07233 -46.40180 36346 ft 474 kts 275°
2026-05-06 15:31 67.07076 -46.57067 36354 ft 474 kts 274°
2026-05-06 15:32 67.06807 -46.82411 36333 ft 474 kts 274°
2026-05-06 15:32 67.06604 -46.99319 36329 ft 474 kts 274°
2026-05-06 15:33 67.06384 -47.16227 36328 ft 475 kts 273°
2026-05-06 15:33 67.06146 -47.33138 36331 ft 474 kts 273°
2026-05-06 15:34 67.05890 -47.50048 36330 ft 475 kts 273°
2026-05-06 15:34 67.05616 -47.66959 36338 ft 475 kts 272°
2026-05-06 15:35 67.05324 -47.83872 36336 ft 475 kts 272°
2026-05-06 15:35 67.05013 -48.00797 36328 ft 476 kts 272°
2026-05-06 15:36 67.04687 -48.17629 36330 ft 476 kts 272°
2026-05-06 15:36 67.04340 -48.34561 36320 ft 476 kts 271°
2026-05-06 15:37 67.03976 -48.51499 36314 ft 477 kts 271°
2026-05-06 15:37 67.03593 -48.68462 36303 ft 477 kts 271°
2026-05-06 15:38 67.03191 -48.85418 36298 ft 477 kts 270°
2026-05-06 15:38 67.02771 -49.02387 36289 ft 478 kts 270°
2026-05-06 15:39 67.02332 -49.19397 36282 ft 479 kts 270°
2026-05-06 15:39 67.01875 -49.36411 36281 ft 479 kts 270°
2026-05-06 15:40 67.01399 -49.53412 36273 ft 480 kts 269°
2026-05-06 15:40 67.00904 -49.70446 36269 ft 480 kts 269°
2026-05-06 15:41 67.00391 -49.87477 36267 ft 481 kts 269°
2026-05-06 15:41 67.00145 -50.04384 36309 ft 476 kts 278°
2026-05-06 15:42 67.00653 -50.21323 36285 ft 478 kts 278°
2026-05-06 15:42 67.01164 -50.38255 36297 ft 478 kts 277°
2026-05-06 15:43 67.01642 -50.55251 36302 ft 479 kts 277°
2026-05-06 15:43 67.02111 -50.72239 36301 ft 479 kts 277°
2026-05-06 15:44 67.02557 -50.89247 36297 ft 479 kts 276°
2026-05-06 15:44 67.02989 -51.06280 36287 ft 480 kts 276°
2026-05-06 15:45 67.03401 -51.23347 36272 ft 481 kts 276°
2026-05-06 15:45 67.03796 -51.40442 36262 ft 481 kts 276°
2026-05-06 15:46 67.04174 -51.57562 36251 ft 482 kts 275°
2026-05-06 15:46 67.04532 -51.74684 36249 ft 482 kts 275°
2026-05-06 15:47 67.04873 -51.91824 36250 ft 482 kts 275°
2026-05-06 15:47 67.05195 -52.08989 36255 ft 482 kts 274°
2026-05-06 15:48 67.05500 -52.26171 36257 ft 483 kts 274°
2026-05-06 15:48 67.05786 -52.43359 36261 ft 483 kts 274°
2026-05-06 15:49 67.06053 -52.60579 36269 ft 484 kts 274°
2026-05-06 15:49 67.06303 -52.77808 36276 ft 484 kts 273°
2026-05-06 15:50 67.06533 -52.95069 36279 ft 484 kts 273°
2026-05-06 15:50 67.06746 -53.12320 36277 ft 484 kts 272°
2026-05-06 15:51 67.06938 -53.29485 36283 ft 485 kts 272°
2026-05-06 15:51 67.07114 -53.46803 36277 ft 486 kts 272°
2026-05-06 15:52 67.07271 -53.64140 36281 ft 486 kts 272°
2026-05-06 15:52 67.07409 -53.81487 36284 ft 487 kts 271°
2026-05-06 15:53 67.07529 -53.98843 36283 ft 487 kts 271°
2026-05-06 15:53 67.07629 -54.16198 36288 ft 487 kts 271°
2026-05-06 15:54 67.07710 -54.33556 36287 ft 486 kts 271°
2026-05-06 15:54 67.07773 -54.50912 36287 ft 487 kts 270°
2026-05-06 15:55 67.07817 -54.68286 36287 ft 487 kts 270°
2026-05-06 15:55 67.07842 -54.85663 36288 ft 487 kts 270°
2026-05-06 15:56 67.07848 -55.03063 36290 ft 488 kts 270°
2026-05-06 15:56 67.07835 -55.20492 36289 ft 489 kts 269°
2026-05-06 15:57 67.07804 -55.37913 36288 ft 489 kts 269°
2026-05-06 15:57 67.07753 -55.55348 36295 ft 489 kts 269°
2026-05-06 15:58 67.07683 -55.72810 36296 ft 490 kts 269°
2026-05-06 15:58 67.07594 -55.90286 36297 ft 490 kts 269°
2026-05-06 15:59 67.07485 -56.07779 36299 ft 491 kts 268°
2026-05-06 15:59 67.07357 -56.25289 36299 ft 491 kts 268°
2026-05-06 16:00 67.07210 -56.42816 36300 ft 493 kts 268°
2026-05-06 16:00 67.07044 -56.60289 36301 ft 493 kts 268°
2026-05-06 16:01 67.06858 -56.77878 36302 ft 494 kts 268°
2026-05-06 16:01 67.06652 -56.95509 36300 ft 495 kts 267°
2026-05-06 16:02 67.06426 -57.13164 36296 ft 496 kts 267°
2026-05-06 16:02 67.06182 -57.30682 36294 ft 490 kts 266°
2026-05-06 16:03 67.05916 -57.48335 36293 ft 497 kts 266°
2026-05-06 16:03 67.05632 -57.66057 36289 ft 498 kts 266°
2026-05-06 16:04 67.05325 -57.83787 36285 ft 499 kts 266°
2026-05-06 16:04 67.05000 -58.01535 36288 ft 498 kts 266°
2026-05-06 16:05 67.04655 -58.19248 36286 ft 498 kts 265°
2026-05-06 16:05 67.04291 -58.36943 36287 ft 497 kts 265°
2026-05-06 16:06 67.03972 -58.51653 36284 ft 498 kts 265°
2026-05-06 16:06 67.03573 -58.69338 36279 ft 497 kts 265°
2026-05-06 16:07 67.03153 -58.86993 36279 ft 498 kts 265°
2026-05-06 16:07 67.02713 -59.04699 36279 ft 498 kts 264°
2026-05-06 16:08 67.02254 -59.22362 36271 ft 498 kts 264°
2026-05-06 16:08 67.01775 -59.40052 36268 ft 498 kts 264°
2026-05-06 16:09 67.01277 -59.57698 36265 ft 498 kts 264°
2026-05-06 16:09 67.00758 -59.75377 36264 ft 498 kts 263°
2026-05-06 16:10 67.00220 -59.93021 36262 ft 498 kts 263°
2026-05-06 16:10 66.99842 -60.10703 36260 ft 498 kts 265°
2026-05-06 16:11 66.99454 -60.28378 36257 ft 498 kts 265°
2026-05-06 16:11 66.99127 -60.46063 36255 ft 497 kts 264°
2026-05-06 16:12 66.98739 -60.63604 36255 ft 497 kts 264°
2026-05-06 16:12 66.98352 -60.81237 36251 ft 496 kts 264°
2026-05-06 16:13 66.97935 -60.98850 36245 ft 497 kts 264°
2026-05-06 16:13 66.97504 -61.16495 36240 ft 497 kts 264°
2026-05-06 16:14 66.97049 -61.34136 36235 ft 498 kts 263°
2026-05-06 16:14 66.96577 -61.51770 36234 ft 498 kts 263°
2026-05-06 16:15 66.96084 -61.69394 36234 ft 498 kts 263°
2026-05-06 16:15 66.95572 -61.87038 36230 ft 498 kts 263°
2026-05-06 16:16 66.95042 -62.04618 36225 ft 497 kts 262°
2026-05-06 16:16 66.94490 -62.22222 36221 ft 497 kts 262°
2026-05-06 16:17 66.93921 -62.39794 36216 ft 497 kts 262°
2026-05-06 16:17 66.93333 -62.57347 36218 ft 496 kts 262°
2026-05-06 16:18 66.92725 -62.74872 36218 ft 496 kts 262°
2026-05-06 16:18 66.92099 -62.92386 36211 ft 496 kts 261°
2026-05-06 16:19 66.91453 -63.09893 36213 ft 496 kts 261°
2026-05-06 16:19 66.90792 -63.27264 36213 ft 496 kts 261°
2026-05-06 16:20 66.90109 -63.44732 36211 ft 496 kts 261°
2026-05-06 16:20 66.89405 -63.62206 36200 ft 496 kts 261°
2026-05-06 16:21 66.88684 -63.79646 36205 ft 495 kts 260°
2026-05-06 16:21 66.87938 -63.97202 36199 ft 495 kts 260°
2026-05-06 16:22 66.87183 -64.14488 36196 ft 495 kts 260°
2026-05-06 16:22 66.86405 -64.31885 36182 ft 495 kts 259°
2026-05-06 16:23 66.85608 -64.49258 36180 ft 495 kts 259°
2026-05-06 16:23 66.84791 -64.66643 36166 ft 495 kts 259°
2026-05-06 16:24 66.83955 -64.84000 36154 ft 496 kts 259°
2026-05-06 16:24 66.83101 -65.01350 36141 ft 495 kts 259°
2026-05-06 16:25 66.82226 -65.18695 36119 ft 495 kts 259°
2026-05-06 16:25 66.81338 -65.35953 36103 ft 494 kts 258°
2026-05-06 16:26 66.80425 -65.53275 36083 ft 494 kts 258°
2026-05-06 16:26 66.79497 -65.70542 36055 ft 494 kts 258°
2026-05-06 16:27 66.78552 -65.87746 36037 ft 494 kts 258°
2026-05-06 16:27 66.77584 -66.05027 36021 ft 493 kts 257°
2026-05-06 16:28 66.76599 -66.22249 36021 ft 494 kts 257°
2026-05-06 16:28 66.75595 -66.39457 36008 ft 494 kts 257°
2026-05-06 16:29 66.74582 -66.56505 36008 ft 494 kts 257°
2026-05-06 16:29 66.73539 -66.73720 36007 ft 494 kts 257°
2026-05-06 16:30 66.72659 -66.87993 36006 ft 494 kts 256°
2026-05-06 16:30 66.71401 -67.08029 36006 ft 494 kts 256°
2026-05-06 16:31 66.70302 -67.25197 36004 ft 494 kts 256°
2026-05-06 16:31 66.69186 -67.42338 36000 ft 494 kts 256°
2026-05-06 16:32 66.68053 -67.59420 35996 ft 494 kts 256°
2026-05-06 16:32 66.66899 -67.76525 35994 ft 494 kts 255°
2026-05-06 16:33 66.65729 -67.93587 36001 ft 494 kts 255°
2026-05-06 16:34 66.63903 -68.19611 35986 ft 517 kts 255°
2026-05-06 16:34 66.62613 -68.37673 35988 ft 530 kts 255°
2026-05-06 16:35 66.61283 -68.55974 35988 ft 532 kts 255°
2026-05-06 16:35 66.59926 -68.74299 35981 ft 534 kts 255°
2026-05-06 16:36 66.58544 -68.92656 35982 ft 535 kts 254°
2026-05-06 16:36 66.57137 -69.11046 35977 ft 536 kts 254°
2026-05-06 16:37 66.55705 -69.29452 35978 ft 537 kts 253°
2026-05-06 16:37 66.54251 -69.47850 35971 ft 538 kts 253°
2026-05-06 16:38 66.52772 -69.66265 35968 ft 539 kts 253°
2026-05-06 16:38 66.51269 -69.84697 35964 ft 540 kts 253°
2026-05-06 16:39 66.49805 -70.03061 35966 ft 542 kts 257°
2026-05-06 16:39 66.48582 -70.21746 35953 ft 540 kts 255°
2026-05-06 16:40 66.47340 -70.40294 35950 ft 540 kts 256°
2026-05-06 16:40 66.46090 -70.58783 35955 ft 538 kts 255°
2026-05-06 16:41 66.44810 -70.77171 35936 ft 536 kts 255°
2026-05-06 16:41 66.43524 -70.95492 35936 ft 534 kts 255°
2026-05-06 16:42 66.42213 -71.13727 35931 ft 532 kts 255°
2026-05-06 16:42 66.40892 -71.31870 35923 ft 530 kts 255°
2026-05-06 16:43 66.39550 -71.49930 35918 ft 529 kts 255°
2026-05-06 16:43 66.38194 -71.67926 35908 ft 528 kts 255°
2026-05-06 16:44 66.36815 -71.85898 35905 ft 527 kts 255°
2026-05-06 16:44 66.35418 -72.03835 35896 ft 528 kts 255°
2026-05-06 16:45 66.33998 -72.21766 35902 ft 528 kts 255°
2026-05-06 16:45 66.32557 -72.39696 35895 ft 529 kts 255°
2026-05-06 16:46 66.31093 -72.57629 35880 ft 530 kts 254°
2026-05-06 16:46 66.29612 -72.75496 35881 ft 532 kts 254°
2026-05-06 16:47 66.28098 -72.93496 35875 ft 533 kts 254°
2026-05-06 16:47 66.26560 -73.11514 35866 ft 534 kts 254°
2026-05-06 16:48 66.24995 -73.29572 35861 ft 536 kts 254°
2026-05-06 16:48 66.23405 -73.47658 35856 ft 537 kts 254°
2026-05-06 16:49 66.21792 -73.65744 35851 ft 537 kts 253°
2026-05-06 16:49 66.20158 -73.83797 35843 ft 537 kts 253°
2026-05-06 16:50 66.18505 -74.01814 35839 ft 536 kts 253°
2026-05-06 16:50 66.16832 -74.19788 35833 ft 536 kts 253°
2026-05-06 16:51 66.15151 -74.37614 35829 ft 536 kts 253°
2026-05-06 16:51 66.13439 -74.55518 35820 ft 536 kts 253°
2026-05-06 16:52 66.11707 -74.73396 35817 ft 536 kts 253°
2026-05-06 16:52 66.09953 -74.91262 35807 ft 536 kts 252°
2026-05-06 16:53 66.08178 -75.09109 35799 ft 536 kts 252°
2026-05-06 16:53 66.06381 -75.26941 35804 ft 536 kts 252°
2026-05-06 16:54 66.04870 -75.41758 35799 ft 537 kts 252°
2026-05-06 16:54 66.03036 -75.59545 35796 ft 536 kts 252°
2026-05-06 16:55 66.01181 -75.77299 35792 ft 536 kts 252°
2026-05-06 16:55 65.99306 -75.95034 35787 ft 536 kts 252°
2026-05-06 16:56 65.97407 -76.12770 35782 ft 537 kts 252°
2026-05-06 16:56 65.95490 -76.30463 35780 ft 537 kts 252°
2026-05-06 16:57 65.93550 -76.48145 35779 ft 537 kts 252°
2026-05-06 16:57 65.91590 -76.65806 35774 ft 538 kts 252°
2026-05-06 16:58 65.89608 -76.83455 35772 ft 538 kts 252°
2026-05-06 16:58 65.87601 -77.01111 35761 ft 539 kts 251°
2026-05-06 16:59 65.85571 -77.18772 35765 ft 540 kts 251°
2026-05-06 16:59 65.83516 -77.36441 35764 ft 541 kts 251°
2026-05-06 17:00 65.81437 -77.54106 35756 ft 542 kts 251°
2026-05-06 17:00 65.79333 -77.71790 35756 ft 543 kts 251°
2026-05-06 17:01 65.77209 -77.89442 35752 ft 543 kts 251°
2026-05-06 17:01 65.75063 -78.07073 35752 ft 543 kts 251°
2026-05-06 17:02 65.72898 -78.24674 35743 ft 544 kts 250°
2026-05-06 17:02 65.70708 -78.42277 35741 ft 544 kts 250°
2026-05-06 17:03 65.68516 -78.59705 35745 ft 544 kts 250°
2026-05-06 17:03 65.66285 -78.77257 35745 ft 543 kts 250°
2026-05-06 17:04 65.64040 -78.94725 35736 ft 543 kts 250°
2026-05-06 17:04 65.61776 -79.12157 35737 ft 542 kts 249°
2026-05-06 17:05 65.59496 -79.29533 35732 ft 541 kts 249°
2026-05-06 17:05 65.57201 -79.46840 35726 ft 541 kts 249°
2026-05-06 17:06 65.54889 -79.64098 35727 ft 540 kts 249°
2026-05-06 17:06 65.52556 -79.81327 35728 ft 539 kts 249°
2026-05-06 17:07 65.50233 -79.98317 35729 ft 538 kts 248°
2026-05-06 17:07 65.47621 -80.15278 35722 ft 536 kts 247°
2026-05-06 17:08 65.45039 -80.32096 35708 ft 535 kts 246°
2026-05-06 17:08 65.42386 -80.48801 35711 ft 534 kts 246°
2026-05-06 17:09 65.39779 -80.65355 35714 ft 533 kts 246°
2026-05-06 17:09 65.37096 -80.82046 35713 ft 532 kts 246°
2026-05-06 17:10 65.34451 -80.98475 35711 ft 532 kts 246°
2026-05-06 17:10 65.31764 -81.14947 35713 ft 530 kts 246°
2026-05-06 17:11 65.29071 -81.31356 35714 ft 530 kts 246°
2026-05-06 17:11 65.26360 -81.47708 35715 ft 529 kts 246°
2026-05-06 17:12 65.23640 -81.63987 35711 ft 528 kts 246°
2026-05-06 17:12 65.20904 -81.80216 35720 ft 527 kts 245°
2026-05-06 17:13 65.18154 -81.96391 35723 ft 527 kts 245°
2026-05-06 17:13 65.15389 -82.12524 35724 ft 527 kts 245°
2026-05-06 17:14 65.12608 -82.28612 35724 ft 527 kts 245°
2026-05-06 17:14 65.09809 -82.44677 35733 ft 526 kts 245°
2026-05-06 17:15 65.06994 -82.60694 35732 ft 526 kts 245°
2026-05-06 17:15 65.04164 -82.76666 35741 ft 526 kts 245°
2026-05-06 17:16 65.01316 -82.92616 35741 ft 526 kts 245°
2026-05-06 17:16 64.98472 -83.08408 35746 ft 526 kts 245°
2026-05-06 17:17 64.95591 -83.24285 35746 ft 526 kts 245°
2026-05-06 17:17 64.92690 -83.40139 35743 ft 526 kts 245°
2026-05-06 17:18 64.89772 -83.55964 35736 ft 526 kts 245°
2026-05-06 17:18 64.86839 -83.71743 35732 ft 526 kts 245°
2026-05-06 17:19 64.83890 -83.87483 35728 ft 526 kts 245°
2026-05-06 17:19 64.80927 -84.03179 35725 ft 526 kts 244°
2026-05-06 17:20 64.77945 -84.18849 35723 ft 526 kts 244°
2026-05-06 17:20 64.74949 -84.34472 35722 ft 526 kts 244°
2026-05-06 17:21 64.71934 -84.50077 35716 ft 526 kts 244°
2026-05-06 17:21 64.68908 -84.65615 35711 ft 526 kts 244°
2026-05-06 17:22 64.65860 -84.81153 35711 ft 525 kts 244°
2026-05-06 17:22 64.62802 -84.96621 35708 ft 525 kts 244°
2026-05-06 17:23 64.59745 -85.11965 35709 ft 526 kts 244°
2026-05-06 17:23 64.56651 -85.27384 35713 ft 526 kts 244°
2026-05-06 17:24 64.53536 -85.42794 35716 ft 526 kts 244°
2026-05-06 17:24 64.50400 -85.58186 35712 ft 527 kts 243°
2026-05-06 17:25 64.47253 -85.73525 35713 ft 526 kts 243°
2026-05-06 17:25 64.44092 -85.88818 35717 ft 527 kts 243°
2026-05-06 17:26 64.40908 -86.04106 35719 ft 527 kts 243°
2026-05-06 17:26 64.37712 -86.19345 35722 ft 527 kts 243°
2026-05-06 17:27 64.34507 -86.34513 35724 ft 528 kts 243°
2026-05-06 17:27 64.31259 -86.49778 35729 ft 528 kts 243°
2026-05-06 17:28 64.28003 -86.64964 35733 ft 529 kts 243°
2026-05-06 17:28 64.24749 -86.80036 35732 ft 530 kts 243°
2026-05-06 17:29 64.21454 -86.95194 35738 ft 530 kts 242°
2026-05-06 17:29 64.18142 -87.10312 35738 ft 530 kts 242°
2026-05-06 17:30 64.14810 -87.25423 35738 ft 531 kts 242°
2026-05-06 17:30 64.11457 -87.40517 35745 ft 531 kts 242°
2026-05-06 17:31 64.08089 -87.55574 35746 ft 531 kts 242°
2026-05-06 17:31 64.04710 -87.70573 35750 ft 531 kts 242°
2026-05-06 17:32 64.01318 -87.85524 35747 ft 530 kts 242°
2026-05-06 17:32 63.97937 -88.00328 35751 ft 530 kts 242°
2026-05-06 17:33 63.94522 -88.15175 35751 ft 529 kts 242°
2026-05-06 17:33 63.91094 -88.29977 35758 ft 529 kts 242°
2026-05-06 17:34 63.87657 -88.44718 35760 ft 528 kts 241°
2026-05-06 17:34 63.84205 -88.59421 35764 ft 527 kts 241°
2026-05-06 17:35 63.80747 -88.74051 35768 ft 527 kts 241°
2026-05-06 17:35 63.77278 -88.88630 35772 ft 526 kts 241°
2026-05-06 17:36 63.72053 -89.10408 35779 ft 525 kts 241°
2026-05-06 17:36 63.68558 -89.24854 35784 ft 525 kts 241°
2026-05-06 17:37 63.65048 -89.39264 35787 ft 524 kts 240°
2026-05-06 17:37 63.61530 -89.53615 35789 ft 524 kts 240°
2026-05-06 17:38 63.58023 -89.67831 35792 ft 524 kts 240°
2026-05-06 17:38 63.54473 -89.82123 35795 ft 524 kts 240°
2026-05-06 17:39 63.50915 -89.96357 35806 ft 524 kts 240°
2026-05-06 17:39 63.47486 -90.10734 35841 ft 524 kts 240°
2026-05-06 17:40 63.43980 -90.25011 35862 ft 523 kts 242°
2026-05-06 17:40 63.40561 -90.39356 35875 ft 523 kts 241°
2026-05-06 17:41 63.37069 -90.53591 35878 ft 523 kts 241°
2026-05-06 17:41 63.33605 -90.67806 35882 ft 522 kts 241°
2026-05-06 17:42 63.30105 -90.81969 35877 ft 522 kts 241°
2026-05-06 17:42 63.26606 -90.96094 35877 ft 521 kts 240°
2026-05-06 17:43 63.23695 -91.07755 35882 ft 521 kts 240°
2026-05-06 17:43 63.20161 -91.21836 35888 ft 521 kts 240°
2026-05-06 17:44 63.16625 -91.35838 35899 ft 521 kts 240°
2026-05-06 17:44 63.13066 -91.49837 35905 ft 521 kts 240°
2026-05-06 17:45 63.09501 -91.63777 35904 ft 521 kts 240°
2026-05-06 17:45 63.05918 -91.77697 35907 ft 521 kts 240°
2026-05-06 17:46 63.02327 -91.91562 35904 ft 521 kts 240°
2026-05-06 17:46 62.98719 -92.05404 35904 ft 521 kts 240°
2026-05-06 17:47 62.95107 -92.19179 35902 ft 520 kts 240°
2026-05-06 17:47 62.91480 -92.32920 35902 ft 520 kts 239°
2026-05-06 17:48 62.87871 -92.46517 35903 ft 519 kts 239°
2026-05-06 17:48 62.84224 -92.60169 35903 ft 519 kts 239°
2026-05-06 17:49 62.80566 -92.73780 35906 ft 519 kts 239°
2026-05-06 17:49 62.76895 -92.87357 35902 ft 519 kts 239°
2026-05-06 17:50 62.73295 -93.00590 35896 ft 519 kts 239°
2026-05-06 17:50 62.69794 -93.13388 35893 ft 519 kts 239°
2026-05-06 17:51 62.66103 -93.26801 35903 ft 519 kts 239°
2026-05-06 17:51 62.64241 -93.33539 36033 ft 521 kts 239°
2026-05-06 17:51 62.62492 -93.39845 36412 ft 519 kts 239°
2026-05-06 17:52 62.60799 -93.45935 36776 ft 518 kts 239°
2026-05-06 17:52 62.58909 -93.52716 37160 ft 517 kts 239°
2026-05-06 17:52 62.57098 -93.59193 37516 ft 516 kts 239°
2026-05-06 17:52 62.55295 -93.65625 37835 ft 516 kts 239°
2026-05-06 17:53 62.51539 -93.78960 37918 ft 515 kts 239°
2026-05-06 17:53 62.47832 -93.92046 37936 ft 514 kts 238°
2026-05-06 17:54 62.44085 -94.05197 37943 ft 514 kts 238°
2026-05-06 17:54 62.40339 -94.18266 37947 ft 514 kts 238°
2026-05-06 17:55 62.36553 -94.31400 37952 ft 514 kts 238°
2026-05-06 17:55 62.32774 -94.44437 37956 ft 513 kts 238°
2026-05-06 17:56 62.28982 -94.57440 37962 ft 513 kts 238°
2026-05-06 17:56 62.25184 -94.70390 37967 ft 512 kts 238°
2026-05-06 17:57 62.21372 -94.83316 37972 ft 512 kts 238°
2026-05-06 17:57 62.17557 -94.96179 37975 ft 512 kts 238°
2026-05-06 17:58 62.13726 -95.09022 37977 ft 511 kts 238°
2026-05-06 17:58 62.09988 -95.21483 37983 ft 511 kts 238°
2026-05-06 17:59 62.06083 -95.34430 37991 ft 511 kts 238°
2026-05-06 17:59 62.02230 -95.47133 37997 ft 511 kts 237°
2026-05-06 18:00 61.98394 -95.59712 38000 ft 511 kts 237°
2026-05-06 18:00 61.94543 -95.72269 38009 ft 510 kts 237°
2026-05-06 18:01 61.90656 -95.84872 38013 ft 510 kts 237°
2026-05-06 18:01 61.86758 -95.97446 38026 ft 510 kts 237°
2026-05-06 18:02 61.82850 -96.09978 38031 ft 510 kts 237°
2026-05-06 18:02 61.78930 -96.22485 38035 ft 510 kts 237°
2026-05-06 18:03 61.75000 -96.34953 38041 ft 510 kts 237°
2026-05-06 18:03 61.71055 -96.47402 38056 ft 510 kts 237°
2026-05-06 18:04 61.67106 -96.59797 38058 ft 509 kts 237°
2026-05-06 18:04 61.63148 -96.72153 38062 ft 509 kts 237°
2026-05-06 18:05 61.59182 -96.84465 38068 ft 509 kts 237°
2026-05-06 18:05 61.55204 -96.96752 38073 ft 509 kts 237°
2026-05-06 18:06 61.51216 -97.09002 38075 ft 509 kts 236°
2026-05-06 18:06 61.47217 -97.21222 38081 ft 509 kts 236°
2026-05-06 18:07 61.43208 -97.33407 38082 ft 509 kts 236°
2026-05-06 18:07 61.39185 -97.45573 38081 ft 509 kts 236°
2026-05-06 18:08 61.35177 -97.57627 38090 ft 509 kts 236°
2026-05-06 18:08 61.31105 -97.69810 38093 ft 509 kts 236°
2026-05-06 18:09 61.27076 -97.81802 38092 ft 509 kts 236°
2026-05-06 18:09 61.23010 -97.93841 38094 ft 509 kts 236°
2026-05-06 18:10 61.18936 -98.05842 38099 ft 508 kts 236°
2026-05-06 18:10 61.14850 -98.17814 38099 ft 509 kts 236°
2026-05-06 18:11 61.10755 -98.29755 38100 ft 509 kts 236°
2026-05-06 18:11 61.06643 -98.41679 38103 ft 510 kts 235°
2026-05-06 18:12 61.02518 -98.53581 38101 ft 510 kts 235°
2026-05-06 18:12 60.98375 -98.65473 38102 ft 511 kts 235°
2026-05-06 18:13 60.94222 -98.77333 38105 ft 511 kts 235°
2026-05-06 18:13 60.90058 -98.89166 38108 ft 511 kts 235°
2026-05-06 18:14 60.85883 -99.00968 38108 ft 511 kts 235°
2026-05-06 18:14 60.81695 -99.12745 38112 ft 511 kts 235°
2026-05-06 18:15 60.77494 -99.24502 38112 ft 511 kts 235°
2026-05-06 18:15 60.73289 -99.36209 38119 ft 511 kts 235°
2026-05-06 18:16 60.69070 -99.47897 38121 ft 511 kts 234°
2026-05-06 18:16 60.64848 -99.59533 38122 ft 510 kts 234°
2026-05-06 18:17 60.60613 -99.71149 38132 ft 511 kts 234°
2026-05-06 18:17 60.56365 -99.82740 38132 ft 511 kts 234°
2026-05-06 18:18 60.52109 -99.94296 38130 ft 511 kts 234°
2026-05-06 18:18 60.47696 -100.05580 38153 ft 511 kts 232°
2026-05-06 18:19 60.43195 -100.16743 38154 ft 512 kts 232°
2026-05-06 18:19 60.38629 -100.27811 38155 ft 512 kts 231°
2026-05-06 18:20 60.34080 -100.38886 38151 ft 512 kts 232°
2026-05-06 18:20 60.29503 -100.49926 38147 ft 512 kts 231°
2026-05-06 18:21 60.24929 -100.60928 38145 ft 512 kts 231°
2026-05-06 18:21 60.20371 -100.71832 38145 ft 512 kts 231°
2026-05-06 18:22 60.15777 -100.82770 38142 ft 512 kts 231°
2026-05-06 18:22 60.11169 -100.93692 38140 ft 512 kts 231°
2026-05-06 18:23 60.06552 -101.04580 38134 ft 512 kts 231°
2026-05-06 18:23 60.01931 -101.15430 38138 ft 512 kts 231°
2026-05-06 18:24 59.97301 -101.26247 38137 ft 512 kts 231°
2026-05-06 18:24 59.92657 -101.37046 38137 ft 512 kts 231°
2026-05-06 18:25 59.88003 -101.47817 38135 ft 513 kts 231°
2026-05-06 18:25 59.83344 -101.58551 38146 ft 512 kts 231°
2026-05-06 18:26 59.78676 -101.69256 38134 ft 513 kts 231°
2026-05-06 18:26 59.74026 -101.79869 38133 ft 513 kts 231°
2026-05-06 18:27 59.69339 -101.90518 38149 ft 513 kts 231°
2026-05-06 18:27 59.64638 -102.01149 38141 ft 513 kts 231°
2026-05-06 18:28 59.59925 -102.11756 38141 ft 513 kts 231°
2026-05-06 18:28 59.55208 -102.22326 38138 ft 514 kts 231°
2026-05-06 18:29 59.50477 -102.32877 38135 ft 513 kts 231°
2026-05-06 18:29 59.45777 -102.43311 38144 ft 513 kts 231°
2026-05-06 18:30 59.40995 -102.53879 38141 ft 513 kts 231°
2026-05-06 18:30 59.36244 -102.64332 38144 ft 514 kts 231°
2026-05-06 18:31 59.31481 -102.74761 38150 ft 513 kts 231°
2026-05-06 18:31 59.27517 -102.83407 38149 ft 513 kts 231°
2026-05-06 18:32 59.22741 -102.93777 38150 ft 514 kts 231°
2026-05-06 18:32 59.17950 -103.04135 38152 ft 514 kts 231°
2026-05-06 18:33 59.13148 -103.14470 38150 ft 514 kts 231°
2026-05-06 18:33 59.08337 -103.24779 38146 ft 515 kts 231°
2026-05-06 18:34 59.03514 -103.35064 38148 ft 515 kts 230°
2026-05-06 18:34 58.98716 -103.45253 38153 ft 514 kts 230°
2026-05-06 18:35 58.93880 -103.55474 38152 ft 515 kts 230°
2026-05-06 18:35 58.89030 -103.65680 38149 ft 515 kts 230°
2026-05-06 18:36 58.84171 -103.75860 38152 ft 515 kts 230°
2026-05-06 18:36 58.79306 -103.86008 38151 ft 515 kts 230°
2026-05-06 18:37 58.74434 -103.96124 38150 ft 515 kts 230°
2026-05-06 18:37 58.69567 -104.06187 38145 ft 515 kts 230°
2026-05-06 18:38 58.64659 -104.16288 38146 ft 515 kts 230°
2026-05-06 18:38 58.59758 -104.26331 38156 ft 515 kts 230°
2026-05-06 18:39 58.54850 -104.36345 38156 ft 515 kts 230°
2026-05-06 18:40 58.47470 -104.51319 38166 ft 516 kts 230°
2026-05-06 18:40 58.42537 -104.61273 38179 ft 516 kts 230°
2026-05-06 18:41 58.37591 -104.71211 38174 ft 516 kts 230°
2026-05-06 18:41 58.32639 -104.81116 38168 ft 516 kts 230°
2026-05-06 18:42 58.27681 -104.90993 38167 ft 516 kts 230°
2026-05-06 18:42 58.22751 -105.00770 38174 ft 515 kts 230°
2026-05-06 18:43 58.17785 -105.10576 38174 ft 515 kts 230°
2026-05-06 18:43 58.12815 -105.20348 38172 ft 515 kts 230°
2026-05-06 18:44 58.07839 -105.30091 38168 ft 515 kts 230°
2026-05-06 18:44 58.02851 -105.39814 38168 ft 515 kts 230°
2026-05-06 18:45 57.97853 -105.49517 38169 ft 515 kts 230°
2026-05-06 18:45 57.92853 -105.59181 38169 ft 515 kts 230°
2026-05-06 18:46 57.87844 -105.68821 38170 ft 515 kts 230°
2026-05-06 18:46 57.82830 -105.78430 38164 ft 515 kts 230°
2026-05-06 18:47 57.77811 -105.88010 38161 ft 515 kts 229°
2026-05-06 18:47 57.72786 -105.97560 38159 ft 515 kts 229°
2026-05-06 18:48 57.67753 -106.07084 38163 ft 514 kts 229°
2026-05-06 18:48 57.62755 -106.16504 38161 ft 514 kts 229°
2026-05-06 18:49 57.57716 -106.25959 38151 ft 514 kts 229°
2026-05-06 18:49 57.52679 -106.35374 38151 ft 513 kts 229°
2026-05-06 18:50 57.47633 -106.44766 38149 ft 513 kts 229°
2026-05-06 18:50 57.42596 -106.54144 38153 ft 510 kts 233°
2026-05-06 18:51 57.37821 -106.63857 38155 ft 510 kts 231°
2026-05-06 18:51 57.33017 -106.73520 38152 ft 509 kts 232°
2026-05-06 18:52 57.28232 -106.83177 38147 ft 509 kts 232°
2026-05-06 18:52 57.23427 -106.92781 38143 ft 509 kts 232°
2026-05-06 18:53 57.18626 -107.02372 38129 ft 508 kts 231°
2026-05-06 18:53 57.13817 -107.11918 38123 ft 508 kts 231°
2026-05-06 18:54 57.09004 -107.21446 38124 ft 508 kts 231°
2026-05-06 18:54 57.04220 -107.30870 38120 ft 507 kts 231°
2026-05-06 18:55 56.99404 -107.40323 38117 ft 507 kts 231°
2026-05-06 18:55 56.94582 -107.49749 38109 ft 507 kts 231°
2026-05-06 18:56 56.89757 -107.59141 38107 ft 506 kts 231°
2026-05-06 18:56 56.84922 -107.68516 38100 ft 506 kts 231°
2026-05-06 18:57 56.80089 -107.77849 38105 ft 506 kts 231°
2026-05-06 18:57 56.75251 -107.87153 38099 ft 505 kts 231°
2026-05-06 18:58 56.70412 -107.96423 38099 ft 505 kts 231°
2026-05-06 18:58 56.65559 -108.05684 38110 ft 505 kts 231°
2026-05-06 18:59 56.60703 -108.14910 38099 ft 505 kts 231°
2026-05-06 18:59 56.55849 -108.24099 38087 ft 504 kts 231°
2026-05-06 19:00 56.50995 -108.33251 38088 ft 504 kts 231°
2026-05-06 19:00 56.46132 -108.42385 38088 ft 504 kts 231°
2026-05-06 19:01 56.41296 -108.51430 38085 ft 503 kts 231°
2026-05-06 19:01 56.36424 -108.60509 38072 ft 503 kts 230°
2026-05-06 19:02 56.31549 -108.69556 38065 ft 503 kts 230°
2026-05-06 19:02 56.26669 -108.78578 38066 ft 502 kts 230°
2026-05-06 19:03 56.21784 -108.87573 38058 ft 503 kts 230°
2026-05-06 19:03 56.16900 -108.96535 38063 ft 502 kts 230°
2026-05-06 19:04 56.12002 -109.05483 38045 ft 502 kts 230°
2026-05-06 19:04 56.07104 -109.14401 38039 ft 502 kts 230°
2026-05-06 19:05 56.02198 -109.23296 38037 ft 502 kts 230°
2026-05-06 19:05 55.97291 -109.32161 38037 ft 502 kts 230°
2026-05-06 19:06 55.92378 -109.41002 38022 ft 501 kts 230°
2026-05-06 19:06 55.87461 -109.49817 38026 ft 501 kts 230°
2026-05-06 19:07 55.82539 -109.58606 38020 ft 501 kts 230°
2026-05-06 19:07 55.77614 -109.67369 38012 ft 501 kts 230°
2026-05-06 19:08 55.72689 -109.76096 38018 ft 500 kts 230°
2026-05-06 19:08 55.67757 -109.84804 38009 ft 500 kts 230°
2026-05-06 19:09 55.62824 -109.93482 38013 ft 500 kts 230°
2026-05-06 19:09 55.57885 -110.02136 38002 ft 499 kts 230°
2026-05-06 19:10 55.52980 -110.10701 38021 ft 499 kts 230°
2026-05-06 19:10 55.48031 -110.19308 37997 ft 499 kts 230°
2026-05-06 19:11 55.43083 -110.27883 37994 ft 499 kts 230°
2026-05-06 19:11 55.38136 -110.36425 37997 ft 498 kts 230°
2026-05-06 19:12 55.33188 -110.44935 37992 ft 497 kts 230°
2026-05-06 19:12 55.28237 -110.53421 37994 ft 497 kts 230°
2026-05-06 19:13 55.23286 -110.61874 38005 ft 496 kts 230°
2026-05-06 19:13 55.18341 -110.70287 38001 ft 495 kts 230°
2026-05-06 19:14 55.13397 -110.78667 38001 ft 495 kts 230°
2026-05-06 19:14 55.08452 -110.87018 37995 ft 494 kts 230°
2026-05-06 19:15 55.03513 -110.95331 37997 ft 493 kts 230°
2026-05-06 19:15 54.98567 -111.03623 38002 ft 493 kts 230°
2026-05-06 19:16 54.93617 -111.11894 37999 ft 493 kts 230°
2026-05-06 19:16 54.88707 -111.20068 37997 ft 492 kts 230°
2026-05-06 19:17 54.83762 -111.28271 38005 ft 491 kts 230°
2026-05-06 19:17 54.78823 -111.36435 37997 ft 491 kts 230°
2026-05-06 19:18 54.73877 -111.44580 37994 ft 490 kts 230°
2026-05-06 19:18 54.68938 -111.52686 37992 ft 490 kts 230°
2026-05-06 19:19 54.63991 -111.60777 37998 ft 489 kts 230°
2026-05-06 19:19 54.59048 -111.68833 37986 ft 489 kts 230°
2026-05-06 19:20 54.54105 -111.76860 37984 ft 488 kts 230°
2026-05-06 19:20 54.49996 -111.83512 37978 ft 488 kts 230°
2026-05-06 19:21 54.45053 -111.91489 37969 ft 487 kts 230°
2026-05-06 19:21 54.40111 -111.99435 37963 ft 486 kts 229°
2026-05-06 19:22 54.35172 -112.07350 37958 ft 486 kts 229°
2026-05-06 19:22 54.30227 -112.15248 37953 ft 485 kts 229°
2026-05-06 19:23 54.25291 -112.23104 37951 ft 485 kts 229°
2026-05-06 19:23 54.20349 -112.30942 37965 ft 484 kts 229°
2026-05-06 19:24 54.15406 -112.38756 37962 ft 484 kts 229°
2026-05-06 19:24 54.10502 -112.46480 37961 ft 483 kts 229°
2026-05-06 19:25 54.05565 -112.54232 37962 ft 482 kts 229°
2026-05-06 19:25 54.00625 -112.61961 37950 ft 483 kts 229°
2026-05-06 19:26 53.95681 -112.69670 37949 ft 482 kts 229°
2026-05-06 19:26 53.90739 -112.77352 37945 ft 481 kts 229°
2026-05-06 19:27 53.85798 -112.85005 37942 ft 481 kts 228°
2026-05-06 19:27 53.80849 -112.92645 37942 ft 481 kts 228°
2026-05-06 19:28 53.75899 -113.00263 37924 ft 481 kts 228°
2026-05-06 19:28 53.70948 -113.07855 37914 ft 481 kts 228°
2026-05-06 19:29 53.65986 -113.15438 37913 ft 481 kts 228°
2026-05-06 19:29 53.61029 -113.22990 37895 ft 480 kts 228°
2026-05-06 19:30 53.56067 -113.30524 37891 ft 480 kts 227°
2026-05-06 19:30 53.51185 -113.37912 37890 ft 479 kts 227°
2026-05-06 19:31 53.46257 -113.45345 37878 ft 479 kts 227°
2026-05-06 19:31 53.38824 -113.56513 37864 ft 478 kts 227°
2026-05-06 19:32 53.33867 -113.63929 37863 ft 477 kts 227°
2026-05-06 19:32 53.28924 -113.71301 37868 ft 476 kts 227°
2026-05-06 19:33 53.23980 -113.78651 37869 ft 475 kts 227°
2026-05-06 19:33 53.19033 -113.85946 37871 ft 476 kts 223°
2026-05-06 19:34 53.13485 -113.92144 37877 ft 481 kts 218°
2026-05-06 19:34 53.07848 -113.98143 37882 ft 480 kts 218°
2026-05-06 19:35 53.02232 -114.04143 37874 ft 480 kts 218°
2026-05-06 19:35 52.96666 -114.10050 37866 ft 479 kts 218°
2026-05-06 19:36 52.91050 -114.16002 37858 ft 479 kts 218°
2026-05-06 19:36 52.85436 -114.21929 37859 ft 478 kts 218°
2026-05-06 19:37 52.79831 -114.27830 37868 ft 478 kts 218°
2026-05-06 19:37 52.74225 -114.33713 37859 ft 477 kts 217°
2026-05-06 19:38 52.68618 -114.39579 37850 ft 477 kts 217°
2026-05-06 19:38 52.63121 -114.45313 37852 ft 476 kts 217°
2026-05-06 19:39 52.57516 -114.51141 37849 ft 476 kts 217°
2026-05-06 19:39 52.51923 -114.56940 37841 ft 475 kts 217°
2026-05-06 19:40 52.46331 -114.62719 37831 ft 474 kts 217°
2026-05-06 19:40 52.40780 -114.68438 37830 ft 474 kts 217°
2026-05-06 19:41 52.35202 -114.74169 37825 ft 473 kts 217°
2026-05-06 19:41 52.29714 -114.79789 37818 ft 473 kts 217°
2026-05-06 19:42 52.24146 -114.85475 37816 ft 472 kts 217°
2026-05-06 19:42 52.18766 -114.90949 37812 ft 472 kts 217°
2026-05-06 19:43 52.13221 -114.96583 37819 ft 471 kts 217°
2026-05-06 19:43 52.07638 -115.02232 37813 ft 471 kts 217°
2026-05-06 19:44 52.02068 -115.07853 37811 ft 471 kts 217°
2026-05-06 19:44 51.96548 -115.13407 37821 ft 470 kts 216°
2026-05-06 19:45 51.90941 -115.19033 37823 ft 470 kts 216°
2026-05-06 19:45 51.85702 -115.24272 37829 ft 470 kts 216°
2026-05-06 19:46 51.80149 -115.29815 37837 ft 470 kts 216°
2026-05-06 19:46 51.74547 -115.35380 37857 ft 469 kts 216°
2026-05-06 19:47 51.69034 -115.40851 37866 ft 469 kts 216°
2026-05-06 19:47 51.63478 -115.46343 37884 ft 469 kts 216°
2026-05-06 19:48 51.57918 -115.51824 37901 ft 468 kts 216°
2026-05-06 19:48 51.52367 -115.57281 37915 ft 468 kts 216°
2026-05-06 19:49 51.46817 -115.62719 37939 ft 467 kts 216°
2026-05-06 19:49 51.41247 -115.68168 37958 ft 469 kts 216°
2026-05-06 19:50 51.35691 -115.73578 37963 ft 468 kts 216°
2026-05-06 19:50 51.30133 -115.78981 37969 ft 467 kts 216°
2026-05-06 19:51 51.24574 -115.84367 37973 ft 467 kts 216°
2026-05-06 19:51 51.19010 -115.89741 37983 ft 467 kts 216°
2026-05-06 19:52 51.13447 -115.95102 37992 ft 467 kts 216°
2026-05-06 19:52 51.07888 -116.00441 37990 ft 467 kts 216°
2026-05-06 19:53 51.02315 -116.05780 37986 ft 467 kts 216°
2026-05-06 19:53 50.96765 -116.11081 37985 ft 465 kts 216°
2026-05-06 19:54 50.91228 -116.16357 37984 ft 467 kts 216°
2026-05-06 19:54 50.85805 -116.21507 37986 ft 466 kts 216°
2026-05-06 19:55 50.80241 -116.26778 37980 ft 465 kts 216°
2026-05-06 19:55 50.74686 -116.32025 37984 ft 465 kts 216°
2026-05-06 19:56 50.69131 -116.37259 37995 ft 466 kts 216°
2026-05-06 19:56 50.63729 -116.42531 38022 ft 466 kts 217°
2026-05-06 19:57 50.58196 -116.47841 38016 ft 465 kts 217°
2026-05-06 19:57 50.52715 -116.53226 38024 ft 465 kts 217°
2026-05-06 19:58 50.47206 -116.58549 38020 ft 465 kts 217°
2026-05-06 19:58 50.41714 -116.63877 38018 ft 464 kts 217°
2026-05-06 19:59 50.36204 -116.69193 38008 ft 466 kts 217°
2026-05-06 19:59 50.30689 -116.74504 38005 ft 466 kts 217°
2026-05-06 20:00 50.25157 -116.79816 38001 ft 467 kts 217°
2026-05-06 20:00 50.19622 -116.85114 37998 ft 466 kts 217°
2026-05-06 20:01 50.14082 -116.90406 37988 ft 467 kts 217°
2026-05-06 20:01 50.08575 -116.95647 37986 ft 467 kts 217°
2026-05-06 20:02 50.03026 -117.00920 37977 ft 468 kts 217°
2026-05-06 20:02 49.97473 -117.06175 37971 ft 467 kts 217°
2026-05-06 20:03 49.91925 -117.11419 37968 ft 467 kts 218°
2026-05-06 20:03 49.86365 -117.16653 37971 ft 467 kts 218°
2026-05-06 20:04 49.80810 -117.21872 37965 ft 466 kts 218°
2026-05-06 20:04 49.75234 -117.27097 37965 ft 469 kts 218°
2026-05-06 20:05 49.69650 -117.32309 37984 ft 468 kts 218°
2026-05-06 20:05 49.64100 -117.37485 37979 ft 469 kts 218°
2026-05-06 20:06 49.58494 -117.42692 37969 ft 470 kts 218°
2026-05-06 20:06 49.52909 -117.47867 37946 ft 470 kts 218°
2026-05-06 20:07 49.47301 -117.53050 37946 ft 470 kts 218°
2026-05-06 20:07 49.41683 -117.58228 37932 ft 471 kts 218°
2026-05-06 20:08 49.36055 -117.63401 37927 ft 472 kts 218°
2026-05-06 20:08 49.31371 -117.67696 37921 ft 472 kts 218°
2026-05-06 20:09 49.25732 -117.72853 37926 ft 472 kts 218°
2026-05-06 20:09 49.20083 -117.78007 37935 ft 473 kts 218°
2026-05-06 20:10 49.14422 -117.83155 37926 ft 473 kts 218°
2026-05-06 20:10 49.08749 -117.88306 37936 ft 473 kts 218°
2026-05-06 20:11 49.03088 -117.93426 37933 ft 475 kts 218°
2026-05-06 20:11 48.97408 -117.98552 37938 ft 475 kts 218°
2026-05-06 20:12 48.91746 -118.03745 37939 ft 474 kts 219°
2026-05-06 20:12 48.86130 -118.09045 37936 ft 476 kts 218°
2026-05-06 20:13 48.80468 -118.14266 37930 ft 476 kts 219°
2026-05-06 20:13 48.74825 -118.19518 37936 ft 477 kts 219°
2026-05-06 20:14 48.69157 -118.24747 37934 ft 479 kts 218°
2026-05-06 20:14 48.63473 -118.29989 37932 ft 478 kts 218°
2026-05-06 20:15 48.57775 -118.35227 37939 ft 479 kts 218°
2026-05-06 20:15 48.52126 -118.40408 37931 ft 480 kts 218°
2026-05-06 20:16 48.46369 -118.45671 37934 ft 480 kts 218°
2026-05-06 20:16 48.40689 -118.50852 37933 ft 479 kts 218°
2026-05-06 20:17 48.34988 -118.56040 37942 ft 481 kts 218°
2026-05-06 20:17 48.29265 -118.61228 37946 ft 480 kts 218°
2026-05-06 20:18 48.23553 -118.66400 37936 ft 480 kts 218°
2026-05-06 20:18 48.17826 -118.71566 37926 ft 480 kts 218°
2026-05-06 20:19 48.12104 -118.76717 37927 ft 480 kts 218°
2026-05-06 20:19 48.06383 -118.81853 37929 ft 480 kts 218°
2026-05-06 20:20 48.00646 -118.86990 37922 ft 480 kts 217°
2026-05-06 20:20 47.94915 -118.92106 37919 ft 479 kts 218°
2026-05-06 20:21 47.89185 -118.97212 37924 ft 480 kts 217°
2026-05-06 20:21 47.83441 -119.02313 37923 ft 481 kts 217°
2026-05-06 20:22 47.77690 -119.07410 37922 ft 481 kts 217°
2026-05-06 20:22 47.71976 -119.12459 37926 ft 481 kts 217°
2026-05-06 20:23 47.66217 -119.17535 37917 ft 481 kts 217°
2026-05-06 20:23 47.60453 -119.22603 37919 ft 482 kts 217°
2026-05-06 20:24 47.54683 -119.27662 37926 ft 482 kts 217°
2026-05-06 20:24 47.48923 -119.32700 37935 ft 482 kts 217°
2026-05-06 20:25 47.43141 -119.37745 37924 ft 482 kts 217°
2026-05-06 20:25 47.37336 -119.42724 37929 ft 485 kts 211°
2026-05-06 20:26 47.31227 -119.47009 37937 ft 486 kts 212°
2026-05-06 20:26 47.25124 -119.51307 37931 ft 487 kts 211°
2026-05-06 20:27 47.18996 -119.55583 37924 ft 487 kts 211°
2026-05-06 20:27 47.12882 -119.59859 37924 ft 486 kts 211°
2026-05-06 20:28 47.06810 -119.64081 37918 ft 486 kts 211°
2026-05-06 20:28 47.00700 -119.68327 37916 ft 486 kts 211°
2026-05-06 20:29 46.94573 -119.72569 37907 ft 487 kts 211°
2026-05-06 20:29 46.88448 -119.76803 37905 ft 487 kts 211°
2026-05-06 20:30 46.79251 -119.83136 37907 ft 487 kts 211°
2026-05-06 20:31 46.73123 -119.87344 37908 ft 487 kts 211°
2026-05-06 20:31 46.67019 -119.91524 37904 ft 488 kts 211°
2026-05-06 20:32 46.60875 -119.95721 37903 ft 488 kts 211°
2026-05-06 20:32 46.54732 -119.99907 37903 ft 488 kts 211°
2026-05-06 20:33 46.48580 -120.04089 37905 ft 489 kts 211°
2026-05-06 20:33 46.42421 -120.08264 37785 ft 490 kts 210°
2026-05-06 20:33 46.39348 -120.10342 37515 ft 485 kts 211°
2026-05-06 20:34 46.36309 -120.12394 37247 ft 482 kts 211°
2026-05-06 20:34 46.33258 -120.14458 36806 ft 487 kts 211°
2026-05-06 20:34 46.30173 -120.16543 36152 ft 489 kts 211°
2026-05-06 20:34 46.27081 -120.18619 35574 ft 488 kts 211°
2026-05-06 20:35 46.24009 -120.20681 35032 ft 487 kts 211°
2026-05-06 20:35 46.20938 -120.22747 34476 ft 486 kts 211°
2026-05-06 20:35 46.17863 -120.24813 33946 ft 487 kts 211°
2026-05-06 20:35 46.14786 -120.26875 33349 ft 490 kts 211°
2026-05-06 20:36 46.11686 -120.28949 32757 ft 491 kts 210°
2026-05-06 20:36 46.08582 -120.31021 32184 ft 492 kts 210°
2026-05-06 20:36 46.05484 -120.33090 31627 ft 493 kts 210°
2026-05-06 20:36 46.02357 -120.35176 31072 ft 494 kts 210°
2026-05-06 20:37 45.99246 -120.37247 30533 ft 493 kts 210°
2026-05-06 20:37 45.96147 -120.39305 29991 ft 489 kts 210°
2026-05-06 20:37 45.93076 -120.41343 29370 ft 484 kts 210°
2026-05-06 20:37 45.90026 -120.43369 28751 ft 480 kts 210°
2026-05-06 20:38 45.87008 -120.45369 28153 ft 476 kts 210°
2026-05-06 20:38 45.84010 -120.47357 27557 ft 472 kts 210°
2026-05-06 20:38 45.81225 -120.49705 26996 ft 460 kts 221°
2026-05-06 20:38 45.78813 -120.52645 26466 ft 449 kts 230°
2026-05-06 20:39 45.76836 -120.56025 25950 ft 439 kts 239°
2026-05-06 20:39 45.75303 -120.59738 25499 ft 428 kts 248°
2026-05-06 20:39 45.74240 -120.63612 25052 ft 418 kts 257°
2026-05-06 20:39 45.73463 -120.67581 24594 ft 413 kts 257°
2026-05-06 20:40 45.72690 -120.71520 24142 ft 408 kts 257°
2026-05-06 20:40 45.71942 -120.75410 23686 ft 404 kts 257°
2026-05-06 20:40 45.71202 -120.79274 23179 ft 400 kts 257°
2026-05-06 20:40 45.70463 -120.83082 22625 ft 389 kts 257°
2026-05-06 20:41 45.69755 -120.86702 22097 ft 376 kts 257°
2026-05-06 20:41 45.69051 -120.90331 21588 ft 378 kts 257°
2026-05-06 20:41 45.68350 -120.93939 21086 ft 375 kts 257°
2026-05-06 20:41 45.67649 -120.97525 20602 ft 372 kts 257°
2026-05-06 20:42 45.66956 -121.01058 20111 ft 368 kts 257°
2026-05-06 20:42 45.66268 -121.04572 19641 ft 365 kts 256°
2026-05-06 20:42 45.65585 -121.08054 19170 ft 362 kts 256°
2026-05-06 20:42 45.64907 -121.11510 18707 ft 359 kts 256°
2026-05-06 20:43 45.64236 -121.14934 18228 ft 356 kts 256°
2026-05-06 20:43 45.63571 -121.18319 17708 ft 353 kts 256°
2026-05-06 20:43 45.62907 -121.21691 17196 ft 350 kts 256°
2026-05-06 20:43 45.62248 -121.25028 16673 ft 347 kts 256°
2026-05-06 20:44 45.61595 -121.28338 16183 ft 344 kts 256°
2026-05-06 20:44 45.60949 -121.31604 15746 ft 341 kts 256°
2026-05-06 20:44 45.60306 -121.34848 15309 ft 338 kts 256°
2026-05-06 20:44 45.59681 -121.37982 14866 ft 318 kts 256°
2026-05-06 20:45 45.59078 -121.41018 14468 ft 322 kts 256°
2026-05-06 20:45 45.58468 -121.44078 14069 ft 318 kts 256°
2026-05-06 20:45 45.57860 -121.47114 13531 ft 319 kts 256°
2026-05-06 20:45 45.57257 -121.50124 12934 ft 321 kts 256°
2026-05-06 20:46 45.56646 -121.53168 12355 ft 314 kts 256°
2026-05-06 20:46 45.56057 -121.56082 11784 ft 298 kts 256°
2026-05-06 20:46 45.55498 -121.58868 11221 ft 289 kts 256°
2026-05-06 20:46 45.54939 -121.61643 10712 ft 293 kts 256°
2026-05-06 20:47 45.54376 -121.64449 10192 ft 291 kts 256°
2026-05-06 20:47 45.53826 -121.67144 9671 ft 275 kts 257°
2026-05-06 20:47 45.53306 -121.69703 9137 ft 263 kts 257°
2026-05-06 20:47 45.52982 -121.72200 8607 ft 251 kts 273°
2026-05-06 20:48 45.53087 -121.74663 8157 ft 248 kts 275°
2026-05-06 20:48 45.53182 -121.77113 7948 ft 249 kts 275°
2026-05-06 20:48 45.53287 -121.79571 7682 ft 246 kts 275°
2026-05-06 20:48 45.53389 -121.81992 7450 ft 241 kts 274°
2026-05-06 20:49 45.53483 -121.84317 7244 ft 241 kts 274°
2026-05-06 20:49 45.53580 -121.86704 7066 ft 240 kts 275°
2026-05-06 20:49 45.53678 -121.89050 7045 ft 234 kts 275°
2026-05-06 20:49 45.53768 -121.91306 7049 ft 224 kts 275°
2026-05-06 20:50 45.53860 -121.93545 7044 ft 222 kts 274°
2026-05-06 20:50 45.53949 -121.95774 7070 ft 235 kts 275°
2026-05-06 20:50 45.54043 -121.98090 7069 ft 231 kts 275°
2026-05-06 20:50 45.54136 -122.00419 7057 ft 235 kts 274°
2026-05-06 20:51 45.54204 -122.02737 6770 ft 232 kts 269°
2026-05-06 20:51 45.53774 -122.04916 6654 ft 226 kts 247°
2026-05-06 20:51 45.52909 -122.06739 6675 ft 223 kts 238°
2026-05-06 20:51 45.52012 -122.08561 6721 ft 219 kts 239°
2026-05-06 20:52 45.51121 -122.10377 6746 ft 228 kts 238°
2026-05-06 20:52 45.50233 -122.12154 6701 ft 212 kts 238°
2026-05-06 20:52 45.49380 -122.13859 6371 ft 210 kts 238°
2026-05-06 20:52 45.48543 -122.15538 6067 ft 206 kts 238°
2026-05-06 20:53 45.47731 -122.17194 5796 ft 200 kts 241°
2026-05-06 20:53 45.47356 -122.19034 5533 ft 191 kts 268°
2026-05-06 20:53 45.47479 -122.20868 5316 ft 183 kts 277°
2026-05-06 20:53 45.47640 -122.22662 5084 ft 182 kts 276°
2026-05-06 20:54 45.47791 -122.24445 4841 ft 179 kts 276°
2026-05-06 20:54 45.47939 -122.26190 4609 ft 176 kts 276°
2026-05-06 20:54 45.48081 -122.27884 4386 ft 167 kts 276°
2026-05-06 20:54 45.48251 -122.29545 4284 ft 176 kts 278°
2026-05-06 20:55 45.48511 -122.31203 4059 ft 174 kts 286°
2026-05-06 20:55 45.49036 -122.32729 3843 ft 165 kts 295°
2026-05-06 20:55 45.49576 -122.34162 3623 ft 162 kts 296°
2026-05-06 20:55 45.50109 -122.35534 3429 ft 163 kts 296°
2026-05-06 20:56 45.50646 -122.36914 3200 ft 157 kts 296°
2026-05-06 20:56 45.51183 -122.38289 2972 ft 153 kts 296°
2026-05-06 20:56 45.51713 -122.39662 2800 ft 164 kts 296°
2026-05-06 20:56 45.52251 -122.41034 2693 ft 159 kts 298°
2026-05-06 20:57 45.52821 -122.42383 2529 ft 159 kts 298°
2026-05-06 20:57 45.53401 -122.43748 2273 ft 162 kts 298°
2026-05-06 20:57 45.53974 -122.45176 1890 ft 169 kts 296°
2026-05-06 20:57 45.54505 -122.46618 1673 ft 158 kts 295°
2026-05-06 20:58 45.55006 -122.47978 1368 ft 154 kts 296°
2026-05-06 20:58 45.55518 -122.49314 1154 ft 151 kts 297°
2026-05-06 20:58 45.56040 -122.50629 1007 ft 155 kts 295°
2026-05-06 20:58 45.56553 -122.51996 827 ft 158 kts 294°
2026-05-06 20:59 45.56889 -122.52922 698 ft 160 kts 295°
2026-05-06 20:59 45.57427 -122.54333 464 ft 161 kts 299°
2026-05-06 20:59 45.57965 -122.55652 263 ft 154 kts 298°
2026-05-06 20:59 45.58314 -122.56536 131 ft 148 kts 297°
2026-05-06 21:00 45.58554 -122.57215 31 ft 144 kts 295°
2026-05-06 21:00 45.58752 -122.57805 30 ft 122 kts 297°
2026-05-06 21:00 45.59061 -122.58490 30 ft 76 kts 299°
2026-05-06 21:00 45.59208 -122.59040 29 ft 33 kts 272°
2026-05-06 21:01 45.59208 -122.59082 28 ft 30 kts 271°
2026-05-06 21:01 45.59256 -122.59302 30 ft 29 kts 300°
2026-05-06 21:01 45.59321 -122.59469 30 ft 23 kts 298°
2026-05-06 21:01 45.59335 -122.59668 26 ft 24 kts 251°
2026-05-06 21:02 45.59297 -122.59757 29 ft 1 kts 230°
2026-05-06 21:02 45.59282 -122.59774 29 ft 4 kts 215°
2026-05-06 21:02 45.59265 -122.59771 29 ft 2 kts 161°
2026-05-06 21:02 45.59231 -122.59733 26 ft 7 kts 144°
2026-05-06 21:03 45.59208 -122.59712 27 ft 3 kts 149°
2026-05-06 21:03 45.59195 -122.59701 26 ft 2 kts 148°
2026-05-06 21:03 45.59192 -122.59698 27 ft 0 kts 148°